Chamberlain, SD

4:17 AM CST on December 14, 2017 (GMT -0600)
Chamberlain

Weather History for K9V9 - December, 2012

Change the Weather History Date:

Sunday, December 30, 2012

  Actual Average Record
Temperature  
Mean Temperature 12 °F -  
Max Temperature 21 °F 29 °F 59 °F (2004)
Min Temperature 3 °F 9 °F -15 °F (2014)
Degree Days  
Heating Degree Days 53    
Moisture  
Dew Point 9 °F    
Average Humidity 78    
Maximum Humidity 84    
Minimum Humidity 68    
Precipitation  
Precipitation 0.00 in - - ()
Sea Level Pressure  
Sea Level Pressure 30.07 in    
Wind  
Wind Speed 7 mph (WNW)    
Max Wind Speed 18 mph    
Max Gust Speed 18 mph    
Averages and records for this station are not official NWS values.
T = Trace of Precipitation, MM = Missing Value Source: NWS Daily Summary

Daily Weather History Graph

Daily Weather History Graph

Search for Another Location

Airport or City:

Trip Planner

Search our weather history database for the weather conditions in past years. The results will help you decide how hot, cold, wet, or windy it might be!

Date:

Astronomy

Dec. 30, 2012 Rise Set
Actual Time 8:11 AM CST 5:09 PM CST
Civil Twilight 7:38 AM CST 5:42 PM CST
Nautical Twilight 7:02 AM CST 6:18 PM CST
Astronomical Twilight 6:27 AM CST 6:53 PM CST
Moon 7:47 PM CST (12/30) 9:16 AM CST (12/30)
Length of Visible Light 10h 03m
Length of Day
8h 58m
Waning Gibbous, 95% of the Moon is Illuminated
Dec 30
Waning Gibbous
Jan 4
Last Quarter
Jan 11
New
Jan 18
First Quarter
Jan 26
Full

Hourly Weather History & Observations

Time (CST) Temp. Windchill Dew Point Humidity Pressure Visibility Wind Dir Wind Speed Gust Speed Precip Events Conditions
12:52 AM 16.0 °F 10.4 °F 10.9 °F 81% 30.13 in - SSE 3.5 mph - N/A   Unknown
1:52 AM 14.0 °F - 10.0 °F 84% 30.12 in - Calm Calm - N/A   Unknown
2:52 AM 12.9 °F 3.8 °F 9.0 °F 84% 30.12 in - SE 5.8 mph - N/A   Unknown
3:52 AM 10.0 °F -0.9 °F 6.1 °F 84% 30.09 in - SSE 6.9 mph - N/A   Unknown
4:52 AM 8.1 °F -2.0 °F 3.9 °F 83% 30.07 in - SE 5.8 mph - N/A   Unknown
5:52 AM 7.0 °F -4.5 °F 1.9 °F 80% 30.06 in - SE 6.9 mph - N/A   Unknown
6:52 AM 3.9 °F -8.2 °F -0.0 °F 84% 30.07 in - SSE 6.9 mph - N/A   Unknown
7:52 AM 5.0 °F -5.6 °F -0.0 °F 80% 30.03 in - ESE 5.8 mph - N/A   Unknown
8:52 AM 6.1 °F -2.8 °F 1.0 °F 80% 30.02 in - SE 4.6 mph - N/A   Unknown
9:52 AM 10.9 °F 1.4 °F 6.1 °F 81% 29.98 in - SE 5.8 mph - N/A   Unknown
10:52 AM 16.0 °F 10.4 °F 9.0 °F 74% 29.97 in - West 3.5 mph - N/A   Unknown
11:52 AM 16.0 °F 3.6 °F 9.0 °F 74% 29.96 in - WNW 10.4 mph - N/A   Unknown
12:52 PM 16.0 °F 1.7 °F 9.0 °F 74% 29.96 in - WNW 13.8 mph - N/A   Unknown
1:52 PM 16.0 °F 2.3 °F 10.0 °F 77% 29.96 in - WNW 12.7 mph - N/A   Unknown
2:52 PM 19.0 °F 4.5 °F 12.0 °F 74% 30.00 in - WNW 16.1 mph - N/A   Unknown
3:52 PM 21.9 °F 7.3 °F 12.9 °F 68% 30.04 in - NW 18.4 mph - N/A   Unknown
4:52 PM 21.9 °F 8.2 °F 12.9 °F 68% 30.08 in - NW 16.1 mph - N/A   Unknown
5:52 PM 21.0 °F 7.6 °F 14.0 °F 74% 30.10 in - NW 15.0 mph - N/A   Unknown
6:52 PM 21.0 °F 9.9 °F 14.0 °F 74% 30.13 in - NNW 10.4 mph - N/A   Unknown
7:52 PM 19.9 °F 7.3 °F 14.0 °F 78% 30.15 in - NNW 12.7 mph - N/A   Unknown
8:52 PM 21.9 °F 8.2 °F 15.1 °F 75% 30.14 in - North 16.1 mph - N/A   Unknown
9:52 PM 21.0 °F 11.4 °F 16.0 °F 81% 30.17 in - NNW 8.1 mph 18.4 mph N/A   Unknown
10:52 PM 18.0 °F 9.8 °F 14.0 °F 84% 30.20 in - NW 5.8 mph - N/A   Unknown
11:52 PM 19.9 °F 7.9 °F 15.1 °F 81% 30.21 in - NNW 11.5 mph - N/A   Unknown